TimeCDT,TemperatureF,Dew PointF,Humidity,Sea Level PressureIn,VisibilityMPH,Wind Direction,Wind SpeedMPH,Gust SpeedMPH,PrecipitationIn,Events,Conditions,WindDirDegrees,DateUTC
12:53 AM,54.0,34.0,47,29.70,10.0,South,4.6,-,N/A,,Clear,190,2013-05-14 05:53:00
1:53 AM,48.9,34.0,56,29.69,10.0,Calm,Calm,-,N/A,,Clear,0,2013-05-14 06:53:00
2:53 AM,44.1,34.0,68,29.69,10.0,Calm,Calm,-,N/A,,Clear,0,2013-05-14 07:53:00
3:53 AM,37.9,32.0,79,29.70,10.0,Calm,Calm,-,N/A,,Clear,0,2013-05-14 08:53:00
4:53 AM,33.1,28.9,85,29.71,10.0,Calm,Calm,-,N/A,,Clear,0,2013-05-14 09:53:00
5:53 AM,34.0,30.0,85,29.71,10.0,Calm,Calm,-,N/A,,Clear,0,2013-05-14 10:53:00
6:53 AM,42.1,35.1,76,29.70,10.0,Calm,Calm,-,N/A,,Clear,0,2013-05-14 11:53:00
7:53 AM,55.0,39.0,55,29.68,10.0,Calm,Calm,-,N/A,,Clear,0,2013-05-14 12:53:00
8:53 AM,62.1,41.0,46,29.69,10.0,NE,3.5,-,N/A,,Clear,50,2013-05-14 13:53:00
9:53 AM,60.1,41.0,49,29.73,10.0,Calm,Calm,-,N/A,,Mostly Cloudy,0,2013-05-14 14:53:00
10:53 AM,63.0,43.0,48,29.80,10.0,Variable,3.5,-,0.00,,Overcast,0,2013-05-14 15:53:00
11:53 AM,68.0,44.1,42,29.73,10.0,ESE,8.1,-,0.00,,Scattered Clouds,110,2013-05-14 16:53:00
12:53 PM,75.0,43.0,32,29.64,10.0,ESE,11.5,17.3,N/A,,Clear,110,2013-05-14 17:53:00
1:53 PM,79.0,37.9,23,29.57,10.0,South,18.4,24.2,N/A,,Clear,170,2013-05-14 18:53:00
2:53 PM,82.0,39.9,22,29.55,10.0,South,15.0,24.2,N/A,,Clear,180,2013-05-14 19:53:00
3:53 PM,82.9,42.1,24,29.52,10.0,SSW,13.8,26.5,N/A,,Clear,210,2013-05-14 20:53:00
4:53 PM,84.0,44.1,25,29.51,10.0,SSW,9.2,19.6,N/A,,Clear,200,2013-05-14 21:53:00
5:53 PM,84.0,44.1,25,29.49,10.0,SSW,11.5,23.0,N/A,,Clear,200,2013-05-14 22:53:00
6:53 PM,84.9,46.0,26,29.43,10.0,South,11.5,17.3,N/A,,Clear,180,2013-05-14 23:53:00
7:53 PM,82.0,46.9,29,29.42,10.0,Variable,5.8,-,N/A,,Clear,0,2013-05-15 00:53:00
8:53 PM,81.0,42.1,25,29.46,10.0,WNW,11.5,20.7,N/A,,Clear,290,2013-05-15 01:53:00
9:53 PM,75.0,33.1,22,29.53,10.0,WNW,9.2,-,N/A,,Scattered Clouds,290,2013-05-15 02:53:00
10:53 PM,71.1,37.0,29,29.55,9.0,WNW,6.9,-,N/A,,Clear,290,2013-05-15 03:53:00
11:53 PM,68.0,43.0,40,29.58,10.0,Variable,6.9,21.9,N/A,,Clear,0,2013-05-15 04:53:00